Location: Columbia
(38.9520°N, 92.3340°W)
Time: 03:04:48
(UTC-06:00)

Tiangong 1 - Visible Passes

Search period start: 22 December 2014 00:00
Search period end: 01 January 2015 00:00
Orbit: 363 x 384 km, 42.8° (Epoch: 22 December)

Date Brightness Start Highest point End Pass type
(mag) Time Alt. Az. Time Alt. Az. Time Alt. Az.
22 Dec 1.6 17:33:40 10° WNW 17:36:37 41° N 17:39:09 13° ENE visible
22 Dec 3.8 19:10:08 10° WNW 19:11:09 19° WNW 19:11:09 19° WNW visible
23 Dec 0.9 18:06:51 10° WNW 18:09:56 71° NNE 18:11:06 34° E visible
24 Dec 1.9 18:39:59 10° W 18:42:57 44° SSW 18:43:07 43° SSW visible
25 Dec 1.0 17:36:25 10° WNW 17:39:30 82° SSW 17:42:35 10° ESE visible
25 Dec 4.0 19:13:48 10° WSW 19:15:17 14° SW 19:15:17 14° SW visible
26 Dec 3.0 18:09:31 10° W 18:12:13 28° SSW 18:14:55 10° SSE visible
28 Dec 4.0 17:38:50 10° W 17:41:02 18° SW 17:43:14 10° SSE visible
